Theta_e
307 307 307 307 307 307 306 305 305 305 305 305 305 305 305 306 307 305 299 299 296 290 291 291 291 289 292 291 288 290 289 287 286 283 282 280 282 285 285 288 286 284 282 284 284 282 280 292 290 291 296 300 303 302
307 306 306 306 306 305 305 304 304 304 305 304 305 306 306 306 307 307 299 300 301 294 292 295 295 296 297 296 293 294 290 290 287 287 282 287 284 286 285 280 292 284 287 284 285 285 289 290 290 299 303 302 303 302
306 306 305 304 303 303 303 303 303 303 303 303 303 306 306 306 306 306 301 301 297 292 290 289 290 296 298 298 300 292 291 292 288 295 290 288 284 287 283 286 288 291 295 289 289 292 294 296 300 301 303 302 304 305
304 304 303 302 302 302 302 302 301 302 302 302 302 304 305 306 306 306 301 301 297 293 286 288 298 296 301 300 299 300 297 295 294 294 289 288 286 292 288 290 287 290 292 290 290 294 296 298 300 302 302 305 305 307
301 301 300 300 300 300 301 301 301 301 301 302 302 303 304 304 305 304 303 302 301 293 289 289 294 298 299 299 298 300 296 295 293 290 290 288 293 293 294 291 287 290 291 289 287 294 295 296 301 303 303 304 305 306
299 299 299 299 299 299 299 300 300 301 301 302 302 303 303 304 305 301 292 299 301 298 291 287 292 295 298 300 300 298 297 296 295 293 292 295 294 295 288 285 291 295 297 296 295 299 299 301 302 305 304 305 306 306
298 298 298 298 298 298 298 299 299 300 300 301 302 303 303 304 302 296 290 300 302 300 293 289 285 293 299 301 297 298 299 296 297 296 293 289 293 291 287 283 289 295 297 297 300 299 297 300 300 304 305 305 306 306
297 297 297 297 297 298 298 298 299 300 301 302 303 304 305 305 303 298 300 303 304 299 298 286 286 288 300 294 294 298 296 297 298 297 293 290 291 290 283 290 293 296 296 297 299 301 301 303 302 301 303 304 303 302
297 297 297 297 297 297 298 299 300 301 302 303 304 306 301 298 296 301 309 307 304 300 291 290 287 281 297 299 296 296 298 292 297 294 291 291 286 281 287 290 292 294 293 295 299 299 299 299 298 299 300 300 301 301
296 296 296 297 297 297 298 300 302 303 303 303 300 298 297 299 304 304 301 297 297 298 297 291 292 286 291 292 292 289 291 288 289 292 293 282 282 291 293 294 295 295 297 297 295 296 297 297 298 298 299 299 300 301
296 296 296 296 297 298 300 302 302 300 299 291 288 291 297 302 298 297 293 291 291 290 291 290 289 287 293 288 289 290 283 285 282 289 290 282 282 290 295 296 297 298 297 299 301 300 299 298 297 298 298 298 298 299
295 295 296 296 297 299 300 300 300 293 290 290 291 296 297 293 290 290 289 292 289 287 290 288 290 290 292 296 289 287 282 283 282 293 289 281 288 293 295 297 296 297 300 298 300 300 299 300 299 298 298 297 297 297
295 295 295 296 298 299 299 299 299 298 297 295 294 292 290 290 284 286 281 285 290 293 294 294 292 294 293 293 288 285 280 279 286 278 281 285 291 294 296 296 295 299 300 301 298 299 299 299 298 297 296 297 297 297
295 295 296 297 298 298 298 298 298 296 289 290 290 284 285 283 284 285 287 291 296 298 296 293 293 293 292 289 288 283 286 283 276 275 279 288 292 294 296 297 296 297 298 299 299 299 298 298 297 297 296 296 296 295
295 296 296 297 298 298 297 298 299 292 288 286 289 282 284 287 289 292 295 295 297 299 297 293 292 292 286 288 288 285 282 276 278 278 282 290 295 298 297 297 297 298 298 298 299 299 298 297 296 296 296 296 295 295
295 296 294 296 297 297 298 297 292 291 288 288 287 286 287 285 286 289 290 290 295 298 297 295 289 288 287 286 284 282 279 276 279 282 290 294 298 299 299 302 298 299 299 297 298 300 299 298 296 296 297 296 295 295
295 288 295 296 297 298 297 291 290 290 286 285 285 290 288 286 287 288 289 290 292 291 292 294 286 286 289 286 282 282 280 283 286 289 293 296 298 299 298 301 300 301 298 297 298 297 297 298 297 296 294 294 295 295
290 290 296 297 296 294 290 293 291 288 285 286 283 284 285 287 286 287 289 290 290 292 296 292 294 288 285 282 281 286 288 291 292 294 296 297 299 299 300 300 302 301 298 297 298 297 297 295 294 293 294 294 295 294
292 293 296 297 295 291 285 287 290 284 284 285 286 286 287 287 288 291 292 293 293 295 296 294 291 289 288 290 289 290 291 294 294 296 298 300 300 299 302 303 302 299 298 297 297 295 295 296 294 293 292 293 292 291
296 296 296 296 295 288 285 285 289 286 282 285 287 285 285 285 288 288 289 289 292 293 293 290 291 292 292 296 294 294 296 296 295 295 298 297 300 300 300 300 300 301 297 297 297 295 296 294 294 293 293 292 291 289
293 291 294 292 288 288 285 285 284 284 285 284 287 283 282 284 284 283 283 287 286 289 289 293 295 298 299 300 300 297 296 296 296 296 296 295 297 299 299 299 299 297 297 297 297 296 296 295 294 294 293 291 291 291
288 294 290 289 285 286 283 285 284 286 284 284 284 284 282 279 281 284 286 283 284 286 288 291 293 295 296 296 299 298 299 298 297 297 295 296 296 297 298 299 298 297 298 298 298 297 297 297 295 296 293 291 291 290
293 292 290 288 284 281 277 286 282 284 281 283 284 283 282 280 284 288 283 285 288 292 293 294 295 296 297 298 298 298 299 298 297 297 298 299 299 300 299 299 299 298 296 297 299 299 296 294 294 294 293 292 291 289
294 287 283 282 283 275 282 281 284 284 283 281 279 280 281 282 286 283 282 286 289 292 291 292 294 294 295 297 296 296 297 298 298 298 298 299 298 297 299 299 300 300 300 299 298 295 296 297 294 294 293 292 290 288
280 274 280 276 280 280 279 280 281 279 277 278 279 281 282 285 280 281 283 287 289 290 290 291 292 294 293 295 296 296 296 295 296 296 296 298 298 298 299 301 300 300 300 298 295 296 297 296 296 294 293 291 289 288
272 277 276 278 278 277 277 276 276 277 277 278 280 284 283 283 282 282 285 288 288 290 289 289 292 294 295 296 297 297 297 299 295 295 296 300 301 300 299 298 297 298 301 301 298 296 296 296 295 294 292 289 287 289
271 273 279 284 281 281 279 279 278 275 277 278 279 280 281 278 280 285 288 288 289 292 294 294 294 292 292 293 295 296 298 299 298 298 300 300 300 300 300 299 299 300 301 301 300 298 297 295 295 294 292 291 290 289
280 281 278 278 280 281 279 278 278 277 278 282 282 278 279 280 279 283 288 287 289 292 292 293 295 295 295 294 294 294 295 298 299 300 300 299 300 299 298 299 301 293 301 303 302 300 299 297 295 294 292 291 289 288
280 282 282 279 280 280 280 279 280 281 282 281 278 279 283 284 284 284 286 287 289 289 287 288 290 293 293 295 295 293 292 293 294 293 293 293 295 296 298 296 295 295 295 296 289 296 299 297 295 294 292 291 289 287
279 283 281 280 280 279 282 284 282 285 286 286 285 285 285 284 284 285 285 285 285 285 287 288 290 290 288 288 289 291 291 290 291 291 291 292 295 298 296 296 295 293 294 294 294 291 288 291 289 290 289 287 286 284
282 283 282 281 281 282 283 285 286 285 284 284 285 283 283 283 285 285 284 285 286 286 286 286 288 289 288 286 286 285 286 289 288 289 290 294 296 297 296 295 295 294 295 295 294 294 291 292 290 288 286 284 283 283
282 282 283 281 283 284 285 283 281 283 283 282 282 287 286 281 277 281 284 284 284 284 285 285 285 285 288 289 289 288 286 286 286 286 286 288 290 294 295 294 294 293 292 290 289 289 288 287 286 285 285 283 283 282
280 281 284 283 281 283 285 283 281 282 281 279 279 281 281 278 275 281 286 285 283 283 284 285 286 286 287 287 286 286 286 287 286 285 285 284 284 286 291 292 291 291 290 289 288 287 286 285 284 283 283 282 282 281
Wind_Speed
17 17 18 18 17 17 17 17 18 18 17 18 18 18 16 16 14 6 3 6 4 4 10 10 7 5 4 3 3 6 6 5 4 6 3 3 3 4 4 3 7 3 4 2 3 5 4 10 13 3 5 6 8 13
16 16 16 16 15 16 17 17 18 18 17 17 19 18 17 15 15 10 5 3 4 4 9 12 16 19 19 19 5 3 3 1 2 3 2 4 3 3 5 4 3 3 3 3 2 2 3 12 14 10 7 6 4 11
16 15 13 15 17 17 18 18 19 19 19 18 20 20 17 15 15 9 3 3 2 3 7 3 7 7 10 18 15 4 2 3 1 1 1 3 5 2 3 2 4 3 3 3 5 3 5 9 8 11 15 14 15 14
13 15 16 17 17 17 18 18 19 20 19 19 19 19 18 16 14 12 4 2 2 2 5 8 3 7 5 6 12 17 3 3 3 2 2 3 4 3 2 4 2 2 5 7 4 5 9 9 12 13 18 18 21 14
14 15 17 18 19 19 19 19 20 20 20 20 19 19 18 17 16 10 7 7 8 4 4 6 9 6 7 7 13 14 5 4 2 2 3 3 3 3 2 3 2 2 4 3 3 10 4 10 7 12 11 15 20 13
15 16 17 18 19 19 20 21 21 22 23 22 22 21 19 16 14 3 4 1 5 6 3 5 5 5 4 3 8 9 5 2 2 2 3 3 4 1 2 3 3 4 4 3 3 11 9 11 5 3 6 10 13 11
14 16 17 18 19 20 21 22 23 24 24 24 23 23 21 15 5 4 4 2 7 4 3 4 5 5 2 4 2 2 2 2 2 2 3 3 2 3 1 3 6 10 7 7 6 8 4 5 3 3 5 8 12 14
15 16 17 19 20 21 21 22 24 26 26 25 25 24 20 13 8 6 6 17 8 4 3 2 5 5 4 3 3 3 3 3 3 3 2 2 1 1 2 6 7 7 8 6 9 9 6 5 9 10 9 9 14 15
14 16 17 19 20 21 22 23 23 24 26 27 27 12 3 2 3 2 6 2 5 2 2 2 2 5 3 1 2 3 3 3 1 3 3 2 1 3 6 4 6 5 3 7 8 7 8 8 9 12 12 15 13 11
14 16 17 19 20 21 22 20 20 22 25 20 5 2 2 1 13 8 1 1 2 3 3 4 3 4 2 1 3 1 0 2 3 3 1 2 4 4 5 6 6 7 6 7 5 7 7 8 8 7 9 9 9 10
15 16 17 18 19 19 20 21 16 19 10 6 5 3 5 13 1 1 2 3 2 3 3 5 7 5 2 3 4 2 2 0 1 2 2 2 4 4 3 4 4 4 2 4 4 4 5 5 6 7 9 11 10 11
15 16 17 19 19 18 19 16 18 4 2 5 7 6 3 3 2 2 3 3 5 5 4 4 5 5 4 2 2 2 2 2 3 2 1 3 5 4 3 4 2 3 4 4 5 5 6 7 7 9 10 11 11 9
16 17 18 18 18 16 16 18 20 19 11 2 3 3 1 2 2 5 4 4 3 3 2 3 4 4 1 2 1 3 2 4 1 3 4 5 3 3 5 3 4 5 3 4 3 5 6 7 8 8 9 7 7 11
16 17 18 19 14 14 18 19 20 10 3 3 3 4 4 5 5 5 4 2 2 2 10 4 2 4 2 2 2 3 3 3 3 1 5 3 4 4 5 4 6 6 5 6 3 2 3 7 7 7 8 7 8 10
18 19 20 14 16 17 20 21 18 2 1 4 3 6 7 6 4 3 4 3 4 4 3 4 1 3 2 3 2 1 1 2 5 6 4 4 4 4 2 1 6 7 6 5 4 4 4 7 6 5 6 6 7 9
17 18 2 19 22 23 24 16 3 2 3 4 6 5 4 2 3 2 2 4 3 3 2 2 2 1 5 4 3 6 5 6 6 5 4 4 4 3 4 2 3 5 6 5 6 4 4 7 6 5 5 6 7 9
13 3 13 21 23 24 21 2 2 5 5 5 5 4 6 4 6 5 3 4 2 3 3 3 2 2 3 3 2 5 6 5 5 4 2 5 7 6 5 6 5 4 5 5 6 6 6 8 7 7 6 3 6 8
4 6 17 20 16 10 2 3 4 5 8 6 4 4 3 4 3 4 4 3 1 3 1 4 3 3 4 4 4 5 4 3 4 4 4 5 6 5 7 6 6 6 6 6 6 7 7 7 7 4 6 5 6 7
8 9 18 20 12 5 3 4 3 5 6 4 4 3 4 4 4 6 6 8 6 6 3 3 5 4 5 4 4 3 4 5 5 4 4 8 7 6 5 7 6 7 6 7 6 4 5 7 6 5 4 4 5 4
18 17 18 13 7 2 4 4 1 4 4 4 3 4 3 4 4 3 4 4 3 3 4 5 4 4 4 4 3 5 4 4 3 3 4 4 5 6 6 6 7 7 5 6 5 4 5 4 3 4 4 5 6 5
7 5 6 1 2 4 4 3 4 4 4 3 2 2 4 3 6 5 4 1 1 3 3 4 4 5 6 6 6 5 5 4 5 5 5 4 4 6 5 4 5 6 5 7 8 5 5 5 5 5 5 5 5 5
4 5 2 3 3 4 4 4 4 4 3 4 5 2 4 3 4 4 3 1 3 3 4 5 8 9 9 8 9 8 10 6 6 3 3 6 5 4 4 5 5 5 6 8 9 9 6 5 5 6 6 5 5 5
5 1 2 3 3 2 8 1 3 4 3 4 3 4 3 3 4 2 3 1 4 4 8 9 13 12 11 12 8 5 8 8 5 5 6 6 5 5 5 4 4 6 5 4 7 8 7 9 7 7 6 6 5 5
3 1 3 3 3 5 4 4 1 3 4 5 5 6 3 3 3 1 1 3 5 8 9 12 11 11 10 8 5 4 2 3 4 2 3 6 5 4 5 5 5 6 6 7 7 7 8 8 9 8 7 7 5 5
2 6 2 4 4 3 4 4 6 4 4 8 4 4 3 2 2 2 3 2 5 5 8 10 9 8 7 6 6 5 5 2 4 7 5 4 4 6 5 3 3 4 7 9 7 9 9 10 10 10 9 8 9 8
1 4 6 4 4 2 1 3 2 1 7 4 4 4 5 3 2 4 3 5 5 4 8 11 9 7 8 7 6 7 8 7 3 4 3 7 8 9 8 8 6 4 4 8 12 11 11 11 12 13 10 9 9 10
4 5 4 4 3 3 4 4 3 2 4 4 3 4 4 5 4 4 2 6 6 8 7 10 9 9 9 10 10 8 8 9 5 2 5 6 5 5 3 7 11 7 7 9 11 14 15 13 13 12 11 8 9 9
5 4 4 3 3 2 4 3 3 3 3 2 3 2 2 3 5 4 4 9 9 8 8 9 10 8 8 10 8 8 9 11 5 5 9 9 9 8 6 3 3 7 7 9 11 12 12 12 13 14 14 12 9 8
4 3 3 10 5 3 3 4 4 3 2 1 1 2 3 4 6 5 5 9 8 8 8 9 10 10 10 8 9 10 12 13 14 16 15 9 7 8 8 6 4 4 2 4 5 10 15 14 14 13 13 11 9 10
4 3 3 4 3 3 3 4 3 3 2 3 3 1 5 3 3 6 7 8 9 9 8 8 7 8 9 10 10 12 10 9 9 8 7 7 6 5 6 6 6 5 3 4 8 10 11 12 14 13 12 10 8 8
2 2 3 4 4 4 5 5 4 3 2 3 2 3 4 4 3 5 10 9 7 7 8 8 8 9 10 11 10 9 10 10 14 14 11 8 8 8 7 8 6 6 6 7 5 9 12 12 11 14 13 12 11 10
2 4 2 3 4 5 3 1 1 2 4 4 5 3 3 4 4 5 9 10 9 9 9 9 8 7 9 7 7 7 8 7 10 10 13 8 7 8 8 7 6 6 9 10 11 10 12 12 11 11 11 12 12 11
3 3 3 3 4 3 3 3 1 4 4 3 5 5 4 3 4 4 4 8 7 8 8 7 7 7 9 10 11 9 10 8 11 16 17 16 16 13 8 7 7 8 11 10 10 12 14 17 14 13 12 11 9 10
Wind_Direction
297 300 304 306 309 309 312 319 319 316 316 319 315 313 306 303 304 305 231 185 175 237 270 244 259 226 256 230 266 310 340 353 337 23 354 315 297 323 296 294 329 320 291 246 199 226 266 360 325 263 321 303 313 337
299 303 307 308 314 317 314 313 314 312 312 315 317 314 310 305 301 300 269 193 176 230 265 278 260 248 240 244 263 260 265 264 271 327 2 298 292 290 296 308 339 322 315 289 311 270 275 280 239 272 306 313 332 298
306 312 320 317 316 314 314 315 316 314 314 317 317 315 308 299 295 291 259 193 203 276 274 274 247 253 214 230 214 223 244 203 210 138 305 290 282 272 298 298 291 275 328 321 305 330 275 283 352 344 15 346 323 317
321 318 317 315 316 317 316 317 314 312 314 314 309 309 315 316 308 298 261 170 185 273 277 279 296 278 196 166 184 207 136 98 138 155 216 255 272 221 264 283 282 262 315 322 303 306 326 356 359 347 337 335 338 325
315 316 321 322 321 320 318 317 316 314 312 313 310 306 305 308 309 301 262 230 201 201 294 292 298 253 285 210 187 192 165 134 161 176 212 239 249 253 277 289 266 13 311 343 312 307 327 320 307 315 340 343 330 360
322 324 326 326 324 324 324 321 319 317 315 312 311 309 307 305 302 293 305 94 185 177 275 290 277 298 359 108 149 169 159 145 191 219 232 251 251 275 353 279 268 247 267 238 284 305 293 273 263 34 359 317 340 20
324 325 326 326 325 325 324 322 320 319 315 311 305 299 295 287 268 217 208 57 134 149 242 287 305 280 90 117 136 160 168 235 230 255 236 235 273 134 203 265 287 313 313 324 331 330 323 5 0 25 3 344 8 25
323 328 328 327 326 325 325 323 321 319 314 308 303 298 288 263 239 251 243 242 219 237 246 285 278 330 191 179 224 158 177 194 214 260 280 235 313 116 264 261 289 305 323 329 349 339 319 9 30 14 14 22 42 28
322 327 327 328 328 327 325 325 323 319 310 313 309 307 99 106 178 269 326 81 167 232 255 230 267 268 326 59 246 177 185 193 216 241 251 99 300 216 233 255 293 310 343 300 322 344 355 27 21 14 16 20 35 30
324 327 328 332 326 328 328 327 324 321 320 325 346 338 113 60 318 307 203 191 180 214 240 245 184 267 27 320 288 66 160 200 208 239 328 88 258 237 240 239 253 286 309 346 347 2 353 7 22 24 38 25 18 32
326 330 329 326 328 329 321 326 349 346 356 3 6 348 308 304 315 208 234 187 189 241 221 233 200 209 259 186 230 175 203 237 339 252 224 293 287 242 239 230 259 292 323 345 342 339 20 44 22 14 33 45 34 26
327 326 326 326 327 321 325 346 346 11 272 261 280 291 270 305 295 260 239 193 195 231 213 200 211 194 257 162 109 320 142 40 250 338 287 272 256 216 197 216 187 128 122 76 23 15 14 27 22 48 45 37 36 30
320 322 321 323 319 318 337 334 333 326 317 287 198 237 211 236 243 218 220 256 236 212 211 236 251 205 96 94 86 83 85 235 18 50 233 235 254 186 205 156 150 144 154 100 40 354 20 35 39 48 52 34 32 34
317 317 319 318 316 333 329 326 328 331 315 275 251 251 208 207 234 207 205 225 325 287 289 244 215 214 176 136 146 128 231 75 23 4 240 250 232 190 191 160 141 175 176 150 161 121 41 51 59 40 40 20 35 43
315 312 311 303 341 333 329 324 321 247 234 257 251 241 227 229 254 233 233 265 271 270 292 312 148 165 239 152 200 120 61 261 199 231 232 216 165 121 30 0 151 161 175 173 177 140 116 92 101 68 41 41 51 50
320 318 356 347 332 330 320 324 309 141 244 237 233 259 265 326 280 332 301 286 273 318 334 312 245 156 223 157 125 216 150 219 244 220 226 173 205 149 205 86 251 184 171 172 158 138 117 112 114 114 60 47 64 65
319 246 319 321 320 318 311 252 221 222 221 238 246 227 250 267 248 250 230 258 309 328 203 184 233 273 339 169 202 182 205 213 207 226 221 207 206 209 164 159 204 139 170 171 122 122 112 121 108 102 101 71 70 71
273 276 299 307 323 314 286 248 253 242 242 239 234 253 220 226 253 275 254 252 165 233 241 231 168 169 226 215 245 233 214 223 199 194 207 225 238 206 157 168 159 178 184 172 143 134 126 120 109 115 119 117 92 69
285 290 297 304 310 300 294 277 227 263 248 264 266 245 235 249 234 248 261 266 231 221 253 209 214 191 229 233 242 222 201 200 197 202 209 204 211 206 175 157 180 170 170 157 154 168 143 139 140 138 132 119 104 93
300 296 295 293 295 241 272 259 297 270 266 251 275 271 239 242 265 260 276 265 232 208 224 217 196 219 205 239 235 258 216 175 137 151 243 219 215 189 212 180 176 172 153 135 131 129 118 105 123 129 126 122 112 102
304 265 310 282 267 215 255 267 257 232 272 276 300 357 285 283 277 276 273 243 211 226 227 235 229 250 245 232 219 223 240 181 199 186 196 216 178 160 191 185 154 144 148 154 161 182 177 166 157 137 119 114 107 101
264 290 279 255 232 258 247 234 240 292 293 268 303 238 255 293 296 276 284 257 224 26 10 329 329 317 301 262 242 212 221 206 213 195 142 120 129 170 196 190 145 157 152 166 170 177 172 139 140 131 126 125 116 118
268 250 240 259 258 237 256 192 242 258 280 298 326 321 279 285 245 319 266 353 57 334 343 331 320 310 303 286 262 216 204 186 187 195 196 201 187 173 150 170 147 148 148 168 182 165 160 150 139 127 123 121 119 112
243 254 261 283 252 265 308 278 210 257 327 1 319 293 288 266 299 287 238 52 329 337 341 337 330 334 330 336 341 311 267 211 206 239 215 159 151 186 168 170 171 172 174 157 160 147 149 152 139 138 142 140 134 131
323 284 224 269 261 261 263 337 25 359 276 302 264 263 271 290 298 14 71 321 322 341 338 329 321 329 324 305 318 322 322 234 216 200 200 181 126 105 108 138 180 169 156 143 148 148 150 154 154 150 154 153 152 151
265 248 182 234 262 217 294 328 292 306 314 282 273 294 353 333 261 62 21 334 320 319 345 335 325 312 337 327 333 324 329 326 265 194 199 169 170 156 153 159 164 208 207 162 148 161 161 160 158 156 157 158 149 145
265 278 241 236 244 288 288 274 266 226 253 264 313 353 319 324 353 48 357 9 326 337 351 339 350 15 4 349 335 328 335 342 342 52 93 74 61 46 105 168 180 188 164 161 165 163 163 164 164 161 158 151 157 157
252 275 245 271 301 252 263 247 259 246 255 310 316 290 276 307 36 330 357 333 331 336 346 346 352 357 11 0 345 353 357 354 357 68 81 63 52 41 19 31 43 160 170 173 167 163 167 167 160 159 158 154 148 146
247 253 287 275 260 248 237 218 227 233 235 112 66 310 28 64 348 336 331 342 337 351 3 354 356 356 5 352 10 16 19 15 21 44 55 41 22 16 360 5 15 36 15 166 151 164 171 161 160 152 145 147 144 132
259 186 261 259 246 246 227 213 245 233 185 234 251 49 102 121 44 9 358 355 359 357 347 346 357 6 6 7 6 23 30 19 15 13 25 20 11 8 4 7 5 4 56 110 128 103 98 108 109 112 115 122 128 122
269 279 248 238 264 251 231 239 244 238 226 218 182 156 113 136 149 25 12 356 343 349 360 2 5 14 16 17 10 9 8 5 0 5 12 19 19 19 13 13 9 27 43 83 108 127 138 136 131 125 124 128 130 129
232 230 269 280 273 285 304 211 234 64 40 40 24 36 86 68 52 10 2 354 359 8 15 13 15 10 11 14 18 31 21 9 8 5 6 6 3 17 33 29 27 56 61 63 71 77 89 98 105 115 122 123 122 123
266 235 238 280 281 301 307 318 208 101 54 57 30 19 52 69 79 12 5 2 4 359 2 3 6 15 22 27 22 14 10 23 23 25 27 30 31 26 26 32 40 48 67 69 77 91 92 96 97 100 99 100 113 119